Weather History for Middleton, WI

Change the Weather History Date:

Wednesday, November 6, 2013

  Actual Average (KMSN) Record (KMSN)
Temperature  
Mean Temperature 43 °F 41 °F  
Max Temperature 56 °F 49 °F 71 °F (1916)
Min Temperature 30 °F 32 °F 7 °F (1951)
Degree Days  
Heating Degree Days 22 24  
Month to date heating degree days 138  
Since 1 July heating degree days 851  
Cooling Degree Days 0 0  
Month to date cooling degree days 0  
Year to date cooling degree days 568  
Moisture  
Dew Point 37 °F    
Average Humidity 80    
Maximum Humidity 96    
Minimum Humidity 52    
Precipitation  
Precipitation 0.19 in 0.09 in 2.61 in (1885)
Month to date precipitation 0.50  
Year to date precipitation 30.85  
Snow  
Snow 0.00 in 0.10 in 4.50 in (1900)
Month to date snowfall 0.3  
Since 1 July snowfall 0.8  
Since 1 September snowfall 0.8  
Snow Depth -    
Sea Level Pressure  
Sea Level Pressure 29.93 in    
Wind  
Wind Speed 13 mph (WNW)    
Max Wind Speed 18 mph    
Max Gust Speed 25 mph    
Visibility 8 miles    
Events      
T = Trace of Precipitation, MM = Missing Value Source: NWS Daily Summary

Daily Weather History Graph

Daily Weather History Graph

Search for Another Location

Airport:

Trip Planner

Search our weather history database for the weather conditions in past years. The results will help you decide how hot, cold, wet, or windy it might be!

Date:

Astronomy

Nov. 06, 2013 Rise Set
Actual Time 6:39 AM CST 4:43 PM CST
Civil Twilight 6:09 AM CST 5:13 PM CST
Nautical Twilight 5:35 AM CST 5:47 PM CST
Astronomical Twilight 5:02 AM CST 6:20 PM CST
Moon 9:56 AM CST (11/6) 7:45 PM CST (11/6)
Length of Visible Light 11h 03m
Length of Day
10h 03m
Waxing Crescent, 14% of the Moon is Illuminated
Nov 6
Waxing Crescent
Nov 9
First Quarter
Nov 17
Full
Nov 25
Last Quarter
Dec 2
New

Hourly Weather History & Observations

Time (CST) Temp. Windchill Dew Point Humidity Pressure Visibility Wind Dir Wind Speed Gust Speed Precip Events Conditions
12:15 AM 54.5 °F - 52.7 °F 94% 29.83 in 10.0 mi SSW 17.3 mph - N/A   Overcast
12:35 AM 54.9 °F - 52.9 °F 93% 29.83 in 7.0 mi SSW 15.0 mph 23.0 mph N/A   Overcast
12:55 AM 54.9 °F - 52.9 °F 93% 29.81 in 4.0 mi South 16.1 mph 24.2 mph N/A   Overcast
1:15 AM 54.9 °F - 53.1 °F 94% 29.80 in 7.0 mi SSW 16.1 mph 20.7 mph 0.01 in   Overcast
1:55 AM 54.9 °F - 53.1 °F 94% 29.78 in 7.0 mi SSW 12.7 mph - 0.01 in   Overcast
2:15 AM 55.2 °F - 53.4 °F 94% 29.77 in 5.0 mi SSW 15.0 mph 23.0 mph N/A   Overcast
2:35 AM 55.2 °F - 53.6 °F 94% 29.77 in 3.0 mi SSW 15.0 mph 19.6 mph N/A   Overcast
2:55 AM 55.4 °F - 53.8 °F 94% 29.76 in 3.0 mi SSW 16.1 mph 23.0 mph N/A   Overcast
3:15 AM 55.4 °F - 54.0 °F 95% 29.77 in 3.0 mi SW 8.1 mph - 0.01 in   Overcast
3:35 AM 55.4 °F - 54.1 °F 96% 29.74 in 3.0 mi South 15.0 mph - 0.05 in   Overcast
3:55 AM 55.4 °F - 54.3 °F 96% 29.73 in 7.0 mi South 13.8 mph - 0.08 in   Overcast
4:15 AM 55.8 °F - 54.5 °F 96% 29.74 in 10.0 mi SSW 11.5 mph - 0.01 in   Overcast
4:35 AM 55.8 °F - 54.3 °F 95% 29.74 in 10.0 mi SSW 12.7 mph 17.3 mph 0.02 in   Overcast
4:55 AM 56.3 °F - 54.5 °F 94% 29.72 in 10.0 mi SSW 15.0 mph - 0.02 in   Overcast
5:15 AM 56.3 °F - 54.5 °F 94% 29.71 in 4.0 mi SSW 12.7 mph - N/A   Overcast
5:35 AM 56.3 °F - 54.7 °F 94% 29.71 in 10.0 mi SSW 13.8 mph 19.6 mph N/A   Overcast
5:55 AM 56.7 °F - 55.0 °F 94% 29.72 in 10.0 mi SSW 13.8 mph 19.6 mph N/A   Overcast
6:15 AM 48.0 °F - 45.9 °F 92% 29.73 in 5.0 mi WNW 13.8 mph 19.6 mph 0.02 in   Overcast
6:35 AM 45.5 °F 40.3 °F 43.7 °F 93% 29.74 in 7.0 mi NW 10.4 mph - 0.02 in   Overcast
6:55 AM 43.9 °F 36.2 °F 42.3 °F 94% 29.76 in 4.0 mi NNW 17.3 mph 21.9 mph 0.02 in   Overcast
7:15 AM 42.6 °F 35.9 °F 40.6 °F 93% 29.77 in 3.0 mi NW 12.7 mph - N/A   Overcast
7:35 AM 42.1 °F 35.7 °F 40.5 °F 94% 29.80 in 2.5 mi NW 11.5 mph - N/A   Overcast
7:55 AM 41.0 °F 32.8 °F 39.2 °F 93% 29.80 in 2.0 mi NW 16.1 mph - 0.02 in   Overcast
8:15 AM 40.3 °F 32.6 °F 38.5 °F 93% 29.82 in 2.5 mi NW 13.8 mph 21.9 mph 0.01 in   Overcast
8:35 AM 40.1 °F 33.6 °F 38.3 °F 93% 29.85 in 4.0 mi NW 10.4 mph 17.3 mph 0.02 in   Overcast
8:55 AM 40.1 °F 32.7 °F 38.3 °F 93% 29.84 in 7.0 mi NNW 12.7 mph - 0.04 in   Overcast
9:15 AM 40.1 °F 32.7 °F 37.9 °F 92% 29.85 in 7.0 mi NNW 12.7 mph - N/A   Overcast
9:35 AM 40.1 °F 32.0 °F 37.4 °F 90% 29.86 in 10.0 mi NNW 15.0 mph 24.2 mph N/A   Overcast
9:55 AM 40.1 °F 31.0 °F 37.4 °F 90% 29.86 in 10.0 mi NNW 18.4 mph 24.2 mph N/A   Overcast
10:15 AM 40.3 °F 32.2 °F 37.4 °F 89% 29.88 in 10.0 mi NNW 15.0 mph 25.3 mph N/A   Overcast
10:35 AM 40.1 °F 32.4 °F 37.8 °F 91% 29.89 in 7.0 mi NW 13.8 mph 20.7 mph N/A   Overcast
10:55 AM 40.1 °F 32.0 °F 37.6 °F 91% 29.91 in 10.0 mi NNW 15.0 mph 20.7 mph N/A   Overcast
11:15 AM 39.7 °F 32.3 °F 37.2 °F 91% 29.92 in 10.0 mi NW 12.7 mph 19.6 mph N/A   Overcast
11:35 AM 39.9 °F 31.8 °F 36.7 °F 88% 29.92 in 10.0 mi NNW 15.0 mph - N/A   Overcast
11:55 AM 40.1 °F 32.7 °F 36.7 °F 88% 29.92 in 10.0 mi NW 12.7 mph 20.7 mph N/A   Overcast
12:15 PM 40.6 °F 33.8 °F 36.5 °F 85% 29.92 in 10.0 mi NW 11.5 mph 20.7 mph N/A   Overcast
12:35 PM 41.9 °F 34.6 °F 36.5 °F 81% 29.93 in 10.0 mi NNW 13.8 mph 21.9 mph N/A   Overcast
12:55 PM 41.9 °F 35.0 °F 36.1 °F 80% 29.93 in 10.0 mi NW 12.7 mph 17.3 mph N/A   Overcast
1:15 PM 42.8 °F 35.8 °F 36.3 °F 78% 29.94 in 10.0 mi NW 13.8 mph 19.6 mph N/A   Overcast
1:35 PM 45.0 °F 39.3 °F 36.0 °F 71% 29.94 in 10.0 mi NW 11.5 mph 20.7 mph N/A   Overcast
1:55 PM 45.1 °F 38.4 °F 34.9 °F 67% 29.95 in 10.0 mi NW 15.0 mph 19.6 mph N/A   Overcast
2:15 PM 45.0 °F 39.3 °F 33.8 °F 65% 29.97 in 10.0 mi NW 11.5 mph - N/A   Mostly Cloudy
2:35 PM 44.8 °F 39.0 °F 34.0 °F 66% 29.97 in 10.0 mi NNW 11.5 mph 17.3 mph N/A   Mostly Cloudy
2:55 PM 43.9 °F 37.9 °F 32.7 °F 65% 29.99 in 10.0 mi NW 11.5 mph 19.6 mph N/A   Mostly Cloudy
3:15 PM 44.1 °F 38.6 °F 32.7 °F 64% 30.00 in 10.0 mi NW 10.4 mph - N/A   Mostly Cloudy
3:35 PM 44.1 °F 37.4 °F 32.9 °F 65% 30.01 in 10.0 mi NW 13.8 mph 17.3 mph N/A   Mostly Cloudy
3:55 PM 43.9 °F 38.3 °F 30.6 °F 59% 30.02 in 10.0 mi NW 10.4 mph - N/A   Scattered Clouds
4:15 PM 42.6 °F 36.3 °F 29.5 °F 60% 30.03 in 10.0 mi NW 11.5 mph - N/A   Clear
4:35 PM 41.4 °F 36.2 °F 28.0 °F 59% 30.04 in 10.0 mi WNW 8.1 mph - N/A   Clear
4:55 PM 40.5 °F 34.6 °F 25.5 °F 55% 30.05 in 10.0 mi WNW 9.2 mph - N/A   Clear
5:15 PM 40.1 °F 34.7 °F 23.5 °F 52% 30.06 in 10.0 mi WNW 8.1 mph - N/A   Clear
5:35 PM 37.8 °F 32.5 °F 24.3 °F 58% 30.07 in 10.0 mi WNW 6.9 mph - N/A   Clear
5:55 PM 36.9 °F 30.1 °F 25.5 °F 64% 30.08 in 10.0 mi WNW 9.2 mph - N/A   Clear
6:15 PM 37.0 °F 30.4 °F 22.6 °F 56% 30.09 in 10.0 mi WNW 9.2 mph - N/A   Clear
6:35 PM 36.9 °F 30.1 °F 21.7 °F 54% 30.10 in 10.0 mi WNW 9.2 mph - N/A   Clear
6:55 PM 37.0 °F 31.0 °F 21.2 °F 53% 30.10 in 10.0 mi WNW 8.1 mph - N/A   Clear
7:15 PM 36.3 °F 29.5 °F 21.4 °F 55% 30.11 in 10.0 mi WNW 9.2 mph - N/A   Clear
7:35 PM 34.9 °F 29.9 °F 22.5 °F 61% 30.12 in 10.0 mi WNW 5.8 mph - N/A   Clear
7:55 PM 35.4 °F 28.4 °F 21.9 °F 58% 30.11 in 10.0 mi WNW 9.2 mph - N/A   Clear
8:15 PM 33.8 °F 27.0 °F 22.8 °F 64% 30.12 in 10.0 mi WNW 8.1 mph - N/A   Clear
8:35 PM 32.4 °F 26.0 °F 23.2 °F 69% 30.12 in 10.0 mi WNW 6.9 mph - N/A   Clear
8:55 PM 31.8 °F 25.4 °F 23.9 °F 73% 30.13 in 10.0 mi WNW 6.9 mph - N/A   Clear
9:15 PM 32.0 °F 25.6 °F 23.5 °F 71% 30.13 in 10.0 mi West 6.9 mph - N/A   Clear
9:35 PM 32.0 °F 24.8 °F 23.0 °F 69% 30.14 in 10.0 mi West 8.1 mph - N/A   Clear
9:55 PM 32.0 °F 26.4 °F 23.7 °F 71% 30.15 in 10.0 mi West 5.8 mph - N/A   Clear
10:15 PM 31.6 °F 26.0 °F 23.9 °F 73% 30.15 in 10.0 mi West 5.8 mph - N/A   Clear
10:35 PM 32.0 °F 25.6 °F 24.4 °F 74% 30.16 in 10.0 mi West 6.9 mph - N/A   Clear
10:55 PM 30.9 °F 24.3 °F 24.3 °F 76% 30.16 in 10.0 mi West 6.9 mph - N/A   Clear
11:15 PM 30.9 °F 23.5 °F 24.6 °F 77% 30.16 in 10.0 mi West 8.1 mph - N/A   Clear
11:35 PM 32.0 °F 25.6 °F 24.8 °F 75% 30.16 in 10.0 mi West 6.9 mph - N/A   Clear
11:55 PM 31.3 °F 24.7 °F 24.8 °F 77% 30.17 in 10.0 mi West 6.9 mph - N/A   Clear